Weather reports worldwide

Advertisment
Lanveoc Poulmic, France (7109): temperature & dewpoint: 08.12.2018 01:00:00 - 14.12.2018 01:00:00 (CET)Lanveoc Poulmic, France (7109): temperature 5cm: 08.12.2018 01:00:00 - 14.12.2018 01:00:00 (CET)Lanveoc Poulmic, France (7109): wind speed & gusts: 08.12.2018 01:00:00 - 14.12.2018 01:00:00 (CET)Lanveoc Poulmic, France (7109): wind direction: 08.12.2018 01:00:00 - 14.12.2018 01:00:00 (CET)Lanveoc Poulmic, France (7109): reduced air pressure: 08.12.2018 01:00:00 - 14.12.2018 01:00:00 (CET)Lanveoc Poulmic, France (7109): visibility: 08.12.2018 01:00:00 - 14.12.2018 01:00:00 (CET)Lanveoc Poulmic, France (7109): precipitation: 08.12.2018 01:00:00 - 14.12.2018 01:00:00 (CET)
Date & Time tt [°C] td [°C] tt 5cm [°C] ff [km/h] ff [kn] fx [km/h] fx [kn] dd ppp [hPa] vv [km] rr [mm]
14.12.2018 01:00:00 - - - - - - - - - - -
14.12.2018 00:00:00 2,7 2,0 2,9 17 9 26 14 E 1015,4 2,0 0,0
13.12.2018 23:00:00 2,9 2,2 3,3 13 7 21 11 E 1015,0 1,8 0,0
13.12.2018 22:00:00 3,0 2,1 3,3 13 7 26 14 ESE 1014,2 3,2 0,0
13.12.2018 21:00:00 3,2 2,5 3,5 18 10 26 14 E 1013,2 2,3 0,0
13.12.2018 20:00:00 3,8 3,1 4,0 14 8 25 14 E 1012,5 2,2 0,0
13.12.2018 19:00:00 4,1 3,4 4,4 14 8 24 13 E 1011,5 1,5 0,0
13.12.2018 18:00:00 4,5 3,8 4,8 12 7 18 10 E 1010,7 1,6 0,0
13.12.2018 17:00:00 5,0 3,8 5,2 12 6 21 11 E 1010,0 3,3 0,0
13.12.2018 16:00:00 5,4 4,0 5,8 14 7 18 10 E 1008,8 11 0,0
13.12.2018 15:00:00 5,5 4,1 5,8 13 7 23 13 ESE 1007,7 14 0,0
13.12.2018 14:00:00 5,3 3,8 5,7 14 8 29 16 E 1007,3 3,0 0,0
13.12.2018 13:00:00 5,6 3,8 6,0 16 9 29 15 E 1006,6 15 0,0
13.12.2018 12:00:00 5,5 3,8 5,5 16 9 39 21 E 1006,1 14 0,0
13.12.2018 11:00:00 4,9 3,7 4,6 23 12 39 21 ESE 1005,5 10 0,0
13.12.2018 10:00:00 4,5 3,5 4,5 21 12 34 18 E 1005,2 9 0,0
13.12.2018 09:00:00 5,0 3,8 4,9 18 10 38 21 E 1004,6 7 0,0
13.12.2018 08:00:00 5,2 4,3 5,0 20 11 46 25 ESE 1004,4 8 0,6
13.12.2018 07:00:00 5,2 4,5 5,1 26 14 48 26 ESE 1004,5 3,4 0,4
13.12.2018 06:00:00 5,1 4,4 5,1 31 17 53 29 ESE 1004,6 4,0 0,4
13.12.2018 05:00:00 5,5 4,5 5,3 29 16 54 29 SE 1005,3 3,9 0,0
13.12.2018 04:00:00 5,8 4,9 5,8 29 16 48 26 ESE 1005,5 3,5 0,0
13.12.2018 03:00:00 5,9 4,9 5,8 27 15 53 29 ESE 1006,2 3,8 0,0
13.12.2018 02:00:00 5,8 4,8 5,7 27 15 47 25 SE 1007,0 3,5 0,0
13.12.2018 01:00:00 5,9 4,9 5,8 27 15 45 24 ESE 1007,7 3,9 0,0
13.12.2018 00:00:00 5,9 4,9 5,8 28 15 46 25 ESE 1008,8 4,0 0,0
12.12.2018 23:00:00 5,9 4,9 5,9 18 10 36 19 SE 1010,0 4,3 0,0
12.12.2018 22:00:00 6,3 5,4 6,2 22 12 44 24 SE 1010,7 4,1 0,0
12.12.2018 21:00:00 6,7 5,5 6,7 26 14 41 22 SE 1011,7 4,6 0,0
12.12.2018 20:00:00 6,6 5,5 6,6 21 11 35 19 SE 1013,4 4,9 0,0
12.12.2018 19:00:00 6,5 5,4 6,4 23 12 37 20 SE 1013,5 4,4 0,0
12.12.2018 18:00:00 6,9 5,5 6,8 17 9 32 17 SE 1014,4 8 0,0
12.12.2018 17:00:00 7,4 6,5 7,4 15 8 25 14 SE 1015,0 7 0,0
12.12.2018 16:00:00 6,9 6,2 7,5 13 7 25 14 SE 1015,7 1,6 0,0
12.12.2018 15:00:00 7,5 6,9 8,2 13 7 19 11 SSE 1016,2 4,8 0,0
12.12.2018 14:00:00 7,6 7,0 9,0 13 7 20 11 SSE 1017,2 4,3 0,0
12.12.2018 13:00:00 8,0 7,6 8,6 11 6 18 10 S 1018,0 1,9 0,0
12.12.2018 12:00:00 7,9 7,5 8,5 14 7 18 10 S 1018,8 0,7 0,0
12.12.2018 11:00:00 7,7 7,3 7,1 11 6 16 9 S 1019,1 0,1 0,0
12.12.2018 10:00:00 7,8 7,2 5,4 4 2 13 7 S 1018,9 10 0,0
12.12.2018 09:00:00 7,3 6,6 5,0 9 5 13 7 S 1019,3 8 0,0
12.12.2018 08:00:00 7,5 6,8 5,8 9 5 12 6 S 1019,0 18 0,0
12.12.2018 07:00:00 7,4 6,7 5,9 8 5 11 6 S 1018,8 28 0,0
12.12.2018 06:00:00 7,8 7,0 6,2 8 4 16 8 S 1018,9 14 0,0
12.12.2018 05:00:00 7,8 7,0 6,8 9 5 16 8 S 1019,1 40 0,0
12.12.2018 04:00:00 8,2 7,4 7,6 10 5 13 7 S 1019,0 18 0,0
12.12.2018 03:00:00 7,9 7,0 6,6 7 4 12 6 S 1018,5 45 0,0
12.12.2018 02:00:00 8,1 7,2 7,9 10 6 16 8 ESE 1018,1 13 0,4
12.12.2018 01:00:00 8,5 7,6 7,9 7 4 10 5 S 1018,8 9 0,0
12.12.2018 00:00:00 8,7 7,6 8,1 4 2 15 8 SSE 1018,4 6 0,8
11.12.2018 23:00:00 9,0 7,8 8,5 8 5 34 18 SSW 1018,8 3,9 5,5
11.12.2018 22:00:00 9,8 8,2 8,7 22 12 38 21 S 1018,0 4,8 1,0
11.12.2018 21:00:00 10,3 7,4 9,0 21 11 39 21 SSE 1018,4 20 0,0
11.12.2018 20:00:00 10,1 7,0 9,2 22 12 45 25 S 1019,0 23 0,0
11.12.2018 19:00:00 9,9 7,0 8,8 24 13 38 20 S 1019,7 20 0,0
11.12.2018 18:00:00 9,6 6,7 8,7 18 10 40 21 SSE 1019,5 20 0,0
11.12.2018 17:00:00 10,0 6,5 9,5 22 12 42 23 SSE 1019,9 25 0,0
11.12.2018 16:00:00 10,4 6,3 10,1 23 13 47 25 SSE 1020,3 26 0,0
11.12.2018 15:00:00 10,6 6,3 10,5 23 12 45 24 SSE 1020,7 20 0,0
11.12.2018 14:00:00 10,9 6,6 10,6 23 12 42 23 SSE 1021,4 15 0,0
11.12.2018 13:00:00 9,7 7,1 10,2 24 13 43 23 SSE 1021,9 19 0,0
11.12.2018 12:00:00 9,1 6,5 8,9 24 13 40 22 SE 1022,9 16 0,0
11.12.2018 11:00:00 8,2 6,2 8,4 21 12 34 18 SE 1023,4 19 0,0
11.12.2018 10:00:00 8,2 6,2 7,5 19 10 33 18 ESE 1023,4 20 0,0
11.12.2018 09:00:00 7,6 6,2 6,1 16 9 29 16 ESE 1023,9 15 0,0
11.12.2018 08:00:00 6,8 5,6 6,0 11 6 18 10 ESE 1024,2 9 0,0
11.12.2018 07:00:00 7,0 5,5 6,4 11 6 18 10 ESE 1024,3 13 0,0
11.12.2018 06:00:00 7,5 6,0 6,9 13 7 21 11 ESE 1024,7 15 0,0
11.12.2018 05:00:00 8,4 6,2 8,1 11 6 16 9 SE 1025,2 19 0,0
11.12.2018 04:00:00 8,6 5,9 8,1 7 4 15 8 SE 1026,2 21 0,0
11.12.2018 03:00:00 8,8 5,7 8,3 11 6 16 9 ESE 1026,9 21 0,0
11.12.2018 02:00:00 9,0 5,9 8,6 8 4 13 7 SE 1027,8 21 0,0
11.12.2018 01:00:00 9,1 6,2 8,4 7 4 13 7 SSE 1028,4 20 0,0
11.12.2018 00:00:00 9,2 6,5 8,2 9 5 13 7 ESE 1028,8 18 0,0
10.12.2018 23:00:00 9,0 6,8 8,3 5 3 10 5 ESE 1029,2 15 0,0
10.12.2018 22:00:00 9,2 7,1 8,4 5 3 8 4 SE 1029,2 13 0,0
10.12.2018 21:00:00 9,2 7,1 7,8 5 3 10 5 SSE 1029,6 14 0,0
10.12.2018 20:00:00 9,1 7,0 7,5 7 4 9 5 S 1029,9 14 0,0
10.12.2018 19:00:00 9,3 7,2 6,8 6 4 8 5 S 1030,1 15 0,0
10.12.2018 18:00:00 9,2 6,5 7,5 6 3 7 4 S 1030,6 15 0,0
10.12.2018 17:00:00 10,5 6,4 9,4 4 2 12 6 SSW 1030,9 20 0,0
10.12.2018 16:00:00 11,4 6,5 10,8 5 3 12 6 W 1031,1 23 0,0
10.12.2018 15:00:00 10,9 6,4 10,5 7 4 14 7 WNW 1031,4 15 0,0
10.12.2018 14:00:00 11,5 6,0 9,8 7 4 25 14 WSW 1031,5 23 0,0
10.12.2018 13:00:00 11,1 6,4 10,8 5 3 12 6 WNW 1032,2 20 0,0
10.12.2018 12:00:00 11,0 6,5 12,6 6 4 17 9 WNW 1032,5 17 0,0
10.12.2018 11:00:00 10,1 6,2 9,3 6 4 18 10 W 1032,3 19 0,0
10.12.2018 10:00:00 9,2 5,7 8,2 9 5 13 7 WNW 1032,2 20 0,0
10.12.2018 09:00:00 8,4 5,7 6,5 12 6 16 9 WNW 1032,0 32 0,0
10.12.2018 08:00:00 8,0 5,1 6,8 8 5 16 9 WNW 1032,2 16 0,0
10.12.2018 07:00:00 8,9 5,6 7,7 7 4 14 7 W 1032,1 15 0,0
10.12.2018 06:00:00 8,4 5,3 5,4 10 5 14 8 W 1031,7 14 0,0
10.12.2018 05:00:00 8,4 5,3 6,0 9 5 13 7 W 1031,8 13 0,0
10.12.2018 04:00:00 8,5 5,6 6,4 9 5 16 9 WNW 1031,8 20 0,0
10.12.2018 03:00:00 8,3 5,4 6,6 10 5 22 12 WNW 1031,8 20 0,0
10.12.2018 02:00:00 8,3 5,0 6,3 9 5 22 12 WNW 1031,6 20 0,0
10.12.2018 01:00:00 8,4 4,8 7,4 15 8 27 15 WNW 1031,6 20 0,0
10.12.2018 00:00:00 8,8 5,2 7,7 15 8 28 15 WNW 1031,1 20 0,0
09.12.2018 23:00:00 9,0 5,2 8,4 19 10 36 19 WNW 1030,9 20 0,0
09.12.2018 22:00:00 9,5 5,1 8,4 23 13 36 19 WNW 1030,2 20 0,0
09.12.2018 21:00:00 9,5 5,5 8,5 23 13 36 20 NW 1029,6 19 0,0
09.12.2018 20:00:00 9,8 5,6 8,9 26 14 39 21 WNW 1029,0 19 0,0
09.12.2018 19:00:00 10,3 6,1 9,2 28 15 44 24 NW 1028,4 17 0,0
09.12.2018 18:00:00 10,0 5,6 9,0 27 14 46 25 NW 1027,5 17 0,0
09.12.2018 17:00:00 10,6 5,8 9,9 28 15 55 30 NW 1026,8 17 0,0
09.12.2018 16:00:00 11,4 6,5 11,1 34 19 58 32 NW 1025,9 15 0,0
09.12.2018 15:00:00 12,0 6,7 11,0 36 19 63 34 WNW 1024,8 13 0,0
09.12.2018 14:00:00 11,8 6,1 11,0 37 20 64 35 WNW 1024,3 17 0,0
09.12.2018 13:00:00 11,6 6,3 11,0 39 21 63 34 WNW 1023,6 17 0,0
09.12.2018 12:00:00 11,7 6,4 10,3 37 20 73 39 WNW 1023,1 14 0,0
09.12.2018 11:00:00 11,5 6,4 10,6 41 22 70 38 WNW 1021,8 13 0,0
09.12.2018 10:00:00 11,1 7,6 10,6 46 25 80 43 WNW 1020,8 10 0,0
09.12.2018 09:00:00 11,1 7,0 10,3 43 23 72 39 W 1019,9 10 0,0
09.12.2018 08:00:00 11,3 6,6 8,9 46 25 76 41 W 1019,1 9 0,0
09.12.2018 07:00:00 11,3 5,8 10,3 46 25 79 42 W 1018,4 10 0,0
09.12.2018 06:00:00 11,0 5,5 9,9 42 23 73 39 W 1017,9 12 0,0
09.12.2018 05:00:00 11,1 5,2 9,7 44 24 70 38 W 1017,4 10 0,0
09.12.2018 04:00:00 11,1 5,4 10,0 44 24 76 41 W 1017,2 11 0,0
09.12.2018 03:00:00 10,8 5,5 8,4 42 23 73 39 W 1016,7 11 0,4
09.12.2018 02:00:00 11,4 5,9 9,1 40 22 70 38 W 1016,1 12 0,0
09.12.2018 01:00:00 10,7 8,5 9,5 41 22 64 35 W 1015,8 7 0,0
09.12.2018 00:00:00 11,9 6,4 10,8 38 20 80 43 W 1015,3 10 0,0
08.12.2018 23:00:00 11,6 7,5 10,8 38 20 84 46 W 1015,3 7 0,0
08.12.2018 22:00:00 12,1 8,8 10,6 36 20 55 30 WSW 1014,6 7 0,0
08.12.2018 21:00:00 12,1 8,8 11,0 31 17 64 35 W 1015,0 7 0,0
08.12.2018 20:00:00 12,0 7,7 11,1 41 22 70 38 W 1014,8 8 0,0
08.12.2018 19:00:00 12,5 9,5 11,7 39 21 60 33 WSW 1014,5 7 0,0
08.12.2018 18:00:00 12,5 10,0 11,6 36 19 62 34 W 1014,5 7 0,0
08.12.2018 17:00:00 12,6 10,7 12,0 37 20 64 34 WSW 1014,4 7 0,0
08.12.2018 16:00:00 12,9 11,3 11,7 35 19 71 38 W 1014,0 12 0,2
08.12.2018 15:00:00 12,5 11,9 11,6 39 21 71 39 WSW 1014,1 1,5 0,4
08.12.2018 14:00:00 12,1 11,5 10,9 44 24 70 38 WSW 1015,1 2,6 0,2
08.12.2018 13:00:00 11,6 10,8 10,9 37 20 59 32 SW 1016,1 1,9 0,0
08.12.2018 12:00:00 11,3 10,4 10,3 35 19 56 30 SW 1017,4 3,3 0,0
08.12.2018 11:00:00 11,3 10,0 10,4 39 21 60 33 WSW 1017,7 5 0,2
08.12.2018 10:00:00 11,0 9,9 10,0 30 16 56 31 WSW 1018,3 3,2 0,6
08.12.2018 09:00:00 10,9 9,2 9,9 35 19 60 32 WSW 1018,8 6 0,0
08.12.2018 08:00:00 11,3 8,0 10,0 28 15 50 27 W 1019,2 12 0,0
08.12.2018 07:00:00 11,1 7,0 10,1 28 15 50 27 W 1019,0 14 0,0
08.12.2018 06:00:00 11,1 6,0 10,1 31 17 57 31 W 1018,9 17 0,0
08.12.2018 05:00:00 10,7 6,6 9,3 29 15 51 28 W 1019,3 14 0,0
08.12.2018 04:00:00 10,3 5,9 9,5 31 17 61 33 W 1019,3 18 0,0
08.12.2018 03:00:00 10,6 6,7 9,5 32 18 61 33 W 1019,2 14 0,0
08.12.2018 02:00:00 10,1 5,9 7,8 37 20 65 35 W 1019,0 17 0,0
08.12.2018 01:00:00 10,3 5,7 9,5 39 21 65 35 W 1019,3 19 0,0

tt = temperature
td = dewpoint
tt 5cm = temperature 5cm
ff = wind speed
fx = gusts
dd = wind direction
ppp = reduced air pressure
vv = visibility
rr = precipitation

Next stations